Location: Goettingen
(51.5300°N, 9.9433°E)
Time: 19:55:42
(UTC+01:00)

ISS - Pass Details

Date: 08 December 2017
Orbit: 402 x 407 km, 51.6° (Epoch: 11 December)

Event Time Altitude Azimuth Distance (km) Brightness Sun altitude
Rises 17:33:07 0° 269° (W) 2,330 1.5 -11.9°
Reaches altitude 10° 17:35:13 10° 270° (W) 1,469 0.2 -12.2°
Maximum altitude 17:38:30 86° 356° (N) 413 -3.9 -12.6°
Enters shadow 17:40:27 23° 87° (E) 927 -2.6 -12.9°
